This is the latest recevied weather packets stored in our database for station/object K5KHP. If no packets are shown the sender has not sent any weather packets the latest 10 day(s).
| Time | Temp. | Humidity | Pressure | Rain* | Wind** | Luminosity | Snow |
|---|---|---|---|---|---|---|---|
| 1777650965 | 18.89° C | 77% | 1014.6 hPa | 0 mm | - | 301 W/m² | - |
| 1777650662 | 17.78° C | 78% | 1014.5 hPa | 0 mm | - | 267 W/m² | - |
| 1777650360 | 17.22° C | 80% | 1014.6 hPa | 0 mm | - | 245 W/m² | - |
| 1777650056 | 17.78° C | 80% | 1014.4 hPa | 0 mm | - | 211 W/m² | - |
| 1777649754 | 17.22° C | 80% | 1014.5 hPa | 0 mm | - | 224 W/m² | - |
| 1777649451 | 17.22° C | 81% | 1014.5 hPa | 0 mm | - | 218 W/m² | - |
| 1777649147 | 16.67° C | 83% | 1014.4 hPa | 0 mm | - | 206 W/m² | - |
| 1777648844 | 16.67° C | 83% | 1014.4 hPa | 0 mm | - | 197 W/m² | - |
| 1777648541 | 16.67° C | 82% | 1014.6 hPa | 0 mm | - | 187 W/m² | - |
| 1777648238 | 16.11° C | 84% | 1014.4 hPa | 0 mm | - | 167 W/m² | - |
| 1777647933 | 15.56° C | 86% | 1014.4 hPa | 0 mm | - | 148 W/m² | - |
| 1777647630 | 15.56° C | 87% | 1014.3 hPa | 0 mm | - | 140 W/m² | - |
| 1777647326 | 15° C | 88% | 1014.2 hPa | 0 mm | - | 130 W/m² | - |
| 1777647025 | 15° C | 88% | 1014 hPa | 0 mm | - | 122 W/m² | - |
| 1777646720 | 14.44° C | 89% | 1014 hPa | 0 mm | - | 101 W/m² | - |
| 1777646415 | 14.44° C | 89% | 1014 hPa | 0 mm | - | 92 W/m² | - |
| 1777646107 | 13.89° C | 89% | 1014 hPa | 0 mm | - | 88 W/m² | - |
| 1777645804 | 13.89° C | 89% | 1014 hPa | 0 mm | - | 72 W/m² | - |
| 1777645501 | 13.33° C | 90% | 1013.8 hPa | 0 mm | - | 61 W/m² | - |
| 1777645196 | 13.33° C | 90% | 1014.1 hPa | 0 mm | - | 56 W/m² | - |
| 1777644893 | 12.78° C | 91% | 1014.1 hPa | 0 mm | - | 49 W/m² | - |
| 1777644591 | 12.78° C | 92% | 1013.8 hPa | 0 mm | - | 44 W/m² | - |
| 1777644286 | 12.78° C | 93% | 1013.9 hPa | 0 mm | - | 41 W/m² | - |
| 1777643983 | 12.22° C | 93% | 1013.6 hPa | 0 mm | - | 36 W/m² | - |
| 1777643680 | 12.22° C | 94% | 1013.7 hPa | 0 mm | - | 32 W/m² | - |
* Rain latest hour (hover to see other rain measurements)
** Current wind speed in m/s (hover to see current wind gust speed)